{"data":{"norad_id":20776,"epoch":"2026-08-15T01:37:06.663072Z","epoch_age_seconds":3158969,"freshness":"OLD","line1":"1 20776U 90079A   26227.06743823 -.00000203  00000+0  00000+0 0  9993","line2":"2 20776  13.3194 349.4402 0002856 148.9621 212.0590  0.98579573   623","mean_motion":0.98579573,"eccentricity":0.0002856,"inclination_deg":13.3194,"raan_deg":349.4402,"arg_perigee_deg":148.9621,"mean_anomaly_deg":212.059,"bstar":0,"rev_number":62,"period_min":1460.7488713712,"perigee_km":36255.57698376,"apogee_km":36279.936318213,"semimajor_km":42645.893650986,"source":"CELESTRAK","updated_at":"2026-08-15T09:00:39.073005Z"}}